This is the latest recevied weather packets stored in our database for station/object KF4WSW-13. If no packets are shown the sender has not sent any weather packets the latest 10 day(s).
| Time | Temp. | Humidity | Pressure | Rain* | Wind** | Luminosity | Snow |
|---|---|---|---|---|---|---|---|
| 1777826749 | 22.78° C | 62% | 1016.4 hPa | 0 mm | - | 319 W/m² | - |
| 1777826446 | 23.33° C | 62% | 1016.8 hPa | 0 mm | - | 879 W/m² | - |
| 1777826143 | 23.33° C | 63% | 1016.9 hPa | 0 mm | - | 865 W/m² | - |
| 1777825841 | 22.78° C | 65% | 1016.7 hPa | 0 mm | - | 843 W/m² | - |
| 1777825538 | 22.78° C | 65% | 1016.8 hPa | 0 mm | - | 800 W/m² | - |
| 1777825235 | 22.78° C | 62% | 1016.8 hPa | 0 mm | - | 789 W/m² | - |
| 1777824932 | 22.22° C | 66% | 1016.8 hPa | 0 mm | - | 759 W/m² | - |
| 1777824628 | 22.22° C | 65% | 1016.9 hPa | 0 mm | - | 768 W/m² | - |
| 1777824325 | 21.67° C | 68% | 1016.6 hPa | 0 mm | - | 760 W/m² | - |
| 1777824021 | 21.67° C | 66% | 1016.7 hPa | 0 mm | - | 735 W/m² | - |
| 1777823718 | 21.11° C | 68% | 1016.7 hPa | 0 mm | - | 748 W/m² | - |
| 1777823415 | 21.11° C | 69% | 1016.7 hPa | 0 mm | - | 745 W/m² | - |
| 1777823112 | 21.11° C | 70% | 1016.8 hPa | 0 mm | - | 778 W/m² | - |
| 1777822809 | 21.11° C | 69% | 1016.6 hPa | 0 mm | - | 738 W/m² | - |
| 1777822508 | 21.11° C | 68% | 1016.8 hPa | 0 mm | - | 826 W/m² | - |
| 1777822205 | 20.56° C | 70% | 1016.9 hPa | 0 mm | - | 875 W/m² | - |
| 1777821902 | 21.11° C | 71% | 1016.8 hPa | 0 mm | - | 590 W/m² | - |
| 1777821599 | 20.56° C | 70% | 1017.1 hPa | 0 mm | - | 257 W/m² | - |
| 1777821298 | 21.11° C | 71% | 1017 hPa | 0 mm | - | 741 W/m² | - |
| 1777820994 | 20.56° C | 72% | 1016.9 hPa | 0 mm | - | 340 W/m² | - |
| 1777820691 | 20.56° C | 71% | 1016.9 hPa | 0 mm | - | 183 W/m² | - |
| 1777820386 | 20.56° C | 71% | 1017 hPa | 0 mm | - | 684 W/m² | - |
| 1777820084 | 20.56° C | 71% | 1017 hPa | 0 mm | - | 179 W/m² | - |
| 1777819781 | 20.56° C | 71% | 1016.7 hPa | 0 mm | - | 290 W/m² | - |
| 1777819479 | 20.56° C | 71% | 1016.7 hPa | 0 mm | - | 252 W/m² | - |
* Rain latest hour (hover to see other rain measurements)
** Current wind speed in m/s (hover to see current wind gust speed)